Time,TemperatureF,DewpointF,PressureIn,WindDirection,WindDirectionDegrees,WindSpeedMPH,WindSpeedGustMPH,Humidity,HourlyPrecipIn,Conditions,Clouds,dailyrainin,SoftwareType,DateUTC
2014-12-21 00:04:00,51.4,50.6,29.47,SSW,211,0.0,0.0,97,0.00,,,0.00,WeatherTracker,2014-12-21 08:04:00,
2014-12-21 00:09:00,51.3,50.5,29.47,WNW,295,0.0,0.0,97,0.00,,,0.00,WeatherTracker,2014-12-21 08:09:00,
2014-12-21 00:14:00,51.3,50.5,29.51,West,264,0.0,0.0,97,0.00,,,0.00,WeatherTracker,2014-12-21 08:14:00,
2014-12-21 00:19:00,51.1,50.3,29.51,West,265,0.0,0.0,97,0.00,,,0.00,WeatherTracker,2014-12-21 08:19:00,
2014-12-21 00:24:00,51.1,50.3,29.51,West,265,0.0,0.0,97,0.00,,,0.00,WeatherTracker,2014-12-21 08:24:00,
2014-12-21 00:29:00,51.1,50.3,29.54,WSW,258,0.0,0.0,97,0.00,,,0.00,WeatherTracker,2014-12-21 08:29:00,
2014-12-21 00:34:00,51.1,50.3,29.54,West,261,0.0,0.0,97,0.00,,,0.00,WeatherTracker,2014-12-21 08:34:00,
2014-12-21 00:39:00,51.1,50.3,29.54,NW,321,1.0,0.0,97,0.00,,,0.00,WeatherTracker,2014-12-21 08:39:00,
2014-12-21 00:44:00,51.1,50.3,29.56,NNW,344,0.0,0.0,97,0.00,,,0.00,WeatherTracker,2014-12-21 08:44:00,
2014-12-21 00:49:00,51.1,50.3,29.56,ESE,117,5.0,0.0,97,0.00,,,0.00,WeatherTracker,2014-12-21 08:49:00,
2014-12-21 00:54:00,51.0,50.2,29.56,WSW,253,0.0,0.0,97,0.00,,,0.00,WeatherTracker,2014-12-21 08:54:00,
2014-12-21 01:00:00,51.0,50.2,29.56,NW,323,0.0,0.0,97,0.00,,,0.00,WeatherTracker,2014-12-21 09:00:00,
2014-12-21 01:05:00,50.8,50.0,29.56,NW,323,0.0,0.0,97,0.00,,,0.00,WeatherTracker,2014-12-21 09:05:00,
2014-12-21 01:10:00,50.8,50.0,29.56,West,277,0.0,0.0,97,0.00,,,0.00,WeatherTracker,2014-12-21 09:10:00,
2014-12-21 01:15:00,50.7,49.6,29.57,West,277,0.0,0.0,96,0.00,,,0.00,WeatherTracker,2014-12-21 09:15:00,
2014-12-21 01:20:00,50.7,49.6,29.57,WNW,291,0.0,0.0,96,0.00,,,0.00,WeatherTracker,2014-12-21 09:20:00,
2014-12-21 01:25:00,50.5,49.4,29.57,NE,38,0.0,0.0,96,0.00,,,0.00,WeatherTracker,2014-12-21 09:25:00,
2014-12-21 01:30:00,50.4,49.3,29.59,WNW,303,0.0,0.0,96,0.00,,,0.00,WeatherTracker,2014-12-21 09:30:00,
2014-12-21 01:35:00,50.1,49.0,29.59,NNW,327,1.0,0.0,96,0.00,,,0.00,WeatherTracker,2014-12-21 09:35:00,
2014-12-21 01:40:00,49.9,48.5,29.59,NNW,332,1.0,0.0,95,0.00,,,0.00,WeatherTracker,2014-12-21 09:40:00,
2014-12-21 01:45:00,49.8,48.4,29.59,NNW,332,0.0,0.0,95,0.00,,,0.00,WeatherTracker,2014-12-21 09:45:00,
2014-12-21 01:50:00,49.5,48.1,29.59,WSW,253,0.0,0.0,95,0.00,,,0.00,WeatherTracker,2014-12-21 09:50:00,
2014-12-21 01:55:00,49.4,47.7,29.59,West,263,0.0,0.0,94,0.00,,,0.00,WeatherTracker,2014-12-21 09:55:00,
2014-12-21 02:00:00,49.4,47.7,29.61,West,263,0.0,0.0,94,0.00,,,0.00,WeatherTracker,2014-12-21 10:00:00,
2014-12-21 02:05:00,49.4,47.7,29.61,West,263,1.0,0.0,94,0.00,,,0.00,WeatherTracker,2014-12-21 10:05:00,
2014-12-21 02:10:00,49.2,47.3,29.61,West,273,0.0,0.0,93,0.00,,,0.00,WeatherTracker,2014-12-21 10:10:00,
2014-12-21 02:15:00,48.9,47.0,29.62,West,273,0.0,0.0,93,0.00,,,0.00,WeatherTracker,2014-12-21 10:15:00,
2014-12-21 02:20:00,48.8,46.9,29.62,WNW,289,2.0,0.0,93,0.00,,,0.00,WeatherTracker,2014-12-21 10:20:00,
2014-12-21 02:25:00,48.6,46.7,29.62,WNW,288,0.0,0.0,93,0.00,,,0.00,WeatherTracker,2014-12-21 10:25:00,
2014-12-21 02:30:00,48.6,46.4,29.63,WNW,288,0.0,0.0,92,0.00,,,0.00,WeatherTracker,2014-12-21 10:30:00,
2014-12-21 02:35:00,48.5,46.3,29.63,WNW,288,0.0,0.0,92,0.00,,,0.00,WeatherTracker,2014-12-21 10:35:00,
2014-12-21 02:41:00,48.3,46.1,29.63,WNW,288,0.0,0.0,92,0.00,,,0.00,WeatherTracker,2014-12-21 10:41:00,
2014-12-21 02:46:00,48.2,46.0,29.64,WNW,288,0.0,0.0,92,0.00,,,0.00,WeatherTracker,2014-12-21 10:46:00,
2014-12-21 02:51:00,48.0,45.8,29.64,WNW,288,0.0,0.0,92,0.00,,,0.00,WeatherTracker,2014-12-21 10:51:00,
2014-12-21 02:56:00,47.9,45.7,29.64,WNW,288,0.0,0.0,92,0.00,,,0.00,WeatherTracker,2014-12-21 10:56:00,
2014-12-21 03:01:00,47.7,45.5,29.65,WNW,288,0.0,0.0,92,0.00,,,0.00,WeatherTracker,2014-12-21 11:01:00,
2014-12-21 03:06:00,47.6,45.4,29.65,WNW,288,0.0,0.0,92,0.00,,,0.00,WeatherTracker,2014-12-21 11:06:00,
2014-12-21 03:11:00,47.4,45.5,29.65,WNW,288,0.0,0.0,93,0.00,,,0.00,WeatherTracker,2014-12-21 11:11:00,
2014-12-21 03:16:00,47.3,45.4,29.66,WNW,288,0.0,0.0,93,0.00,,,0.00,WeatherTracker,2014-12-21 11:16:00,
2014-12-21 03:21:00,47.1,45.2,29.66,WNW,288,0.0,0.0,93,0.00,,,0.00,WeatherTracker,2014-12-21 11:21:00,
2014-12-21 03:26:00,47.0,45.1,29.66,WNW,288,0.0,0.0,93,0.00,,,0.00,WeatherTracker,2014-12-21 11:26:00,
2014-12-21 03:31:00,47.0,45.1,29.67,WNW,288,0.0,0.0,93,0.00,,,0.00,WeatherTracker,2014-12-21 11:31:00,
2014-12-21 03:36:00,46.8,44.9,29.67,WNW,288,0.0,0.0,93,0.00,,,0.00,WeatherTracker,2014-12-21 11:36:00,
2014-12-21 03:41:00,46.7,44.8,29.67,WNW,288,0.0,0.0,93,0.00,,,0.00,WeatherTracker,2014-12-21 11:41:00,
2014-12-21 03:46:00,46.5,44.6,29.67,WNW,288,0.0,0.0,93,0.00,,,0.00,WeatherTracker,2014-12-21 11:46:00,
2014-12-21 03:51:00,46.5,44.6,29.67,WNW,288,0.0,0.0,93,0.00,,,0.00,WeatherTracker,2014-12-21 11:51:00,
2014-12-21 03:56:00,46.4,44.5,29.67,WNW,288,0.0,0.0,93,0.00,,,0.00,WeatherTracker,2014-12-21 11:56:00,
2014-12-21 04:01:00,46.4,44.5,29.69,WNW,288,0.0,0.0,93,0.00,,,0.00,WeatherTracker,2014-12-21 12:01:00,
2014-12-21 04:06:00,46.4,44.5,29.69,WNW,288,0.0,0.0,93,0.00,,,0.00,WeatherTracker,2014-12-21 12:06:00,
2014-12-21 04:11:00,46.2,44.3,29.69,WNW,288,0.0,0.0,93,0.00,,,0.00,WeatherTracker,2014-12-21 12:11:00,
2014-12-21 04:16:00,46.2,44.3,29.70,WNW,288,0.0,0.0,93,0.00,,,0.00,WeatherTracker,2014-12-21 12:16:00,
2014-12-21 04:21:00,46.1,44.2,29.70,WNW,288,0.0,0.0,93,0.00,,,0.00,WeatherTracker,2014-12-21 12:21:00,
2014-12-21 04:26:00,46.1,44.2,29.70,WNW,288,0.0,0.0,93,0.00,,,0.00,WeatherTracker,2014-12-21 12:26:00,
2014-12-21 04:31:00,46.1,44.2,29.70,WNW,288,0.0,0.0,93,0.00,,,0.00,WeatherTracker,2014-12-21 12:31:00,
2014-12-21 04:36:00,46.0,44.1,29.70,WNW,288,0.0,0.0,93,0.00,,,0.00,WeatherTracker,2014-12-21 12:36:00,
2014-12-21 04:41:00,46.1,44.5,29.70,West,263,0.0,0.0,94,0.00,,,0.00,WeatherTracker,2014-12-21 12:41:00,
2014-12-21 04:46:00,46.1,44.5,29.70,West,263,0.0,0.0,94,0.00,,,0.00,WeatherTracker,2014-12-21 12:46:00,
2014-12-21 04:52:00,46.2,44.6,29.70,West,263,0.0,0.0,94,0.00,,,0.00,WeatherTracker,2014-12-21 12:52:00,
2014-12-21 04:57:00,46.2,44.6,29.70,West,263,0.0,0.0,94,0.00,,,0.00,WeatherTracker,2014-12-21 12:57:00,
2014-12-21 05:02:00,46.4,44.8,29.71,West,263,0.0,0.0,94,0.00,,,0.00,WeatherTracker,2014-12-21 13:02:00,
2014-12-21 05:07:00,46.4,44.8,29.71,West,263,0.0,0.0,94,0.00,,,0.00,WeatherTracker,2014-12-21 13:07:00,
2014-12-21 05:12:00,46.4,44.5,29.71,West,261,0.0,0.0,93,0.00,,,0.00,WeatherTracker,2014-12-21 13:12:00,
2014-12-21 05:17:00,46.4,44.5,29.72,NNE,31,0.0,0.0,93,0.00,,,0.00,WeatherTracker,2014-12-21 13:17:00,
2014-12-21 05:22:00,46.5,44.6,29.72,NW,321,0.0,0.0,93,0.00,,,0.00,WeatherTracker,2014-12-21 13:22:00,
2014-12-21 05:27:00,46.7,44.5,29.72,NW,321,0.0,0.0,92,0.00,,,0.00,WeatherTracker,2014-12-21 13:27:00,
2014-12-21 05:32:00,46.7,44.5,29.73,NW,321,0.0,0.0,92,0.00,,,0.00,WeatherTracker,2014-12-21 13:32:00,
2014-12-21 05:37:00,46.8,44.3,29.73,West,278,0.0,0.0,91,0.00,,,0.00,WeatherTracker,2014-12-21 13:37:00,
2014-12-21 05:42:00,46.8,44.3,29.73,West,278,0.0,0.0,91,0.00,,,0.00,WeatherTracker,2014-12-21 13:42:00,
2014-12-21 05:47:00,47.0,44.5,29.73,West,278,0.0,0.0,91,0.00,,,0.00,WeatherTracker,2014-12-21 13:47:00,
2014-12-21 05:52:00,47.0,44.5,29.73,West,278,0.0,0.0,91,0.00,,,0.00,WeatherTracker,2014-12-21 13:52:00,
2014-12-21 05:57:00,47.0,44.2,29.73,West,278,0.0,0.0,90,0.00,,,0.00,WeatherTracker,2014-12-21 13:57:00,
2014-12-21 06:02:00,46.8,44.0,29.74,West,278,0.0,0.0,90,0.00,,,0.00,WeatherTracker,2014-12-21 14:02:00,
2014-12-21 06:07:00,46.8,44.0,29.74,West,278,0.0,0.0,90,0.00,,,0.00,WeatherTracker,2014-12-21 14:07:00,
2014-12-21 06:12:00,46.8,44.0,29.74,West,278,0.0,0.0,90,0.00,,,0.00,WeatherTracker,2014-12-21 14:12:00,
2014-12-21 06:17:00,46.8,44.0,29.76,West,279,0.0,0.0,90,0.00,,,0.00,WeatherTracker,2014-12-21 14:17:00,
2014-12-21 06:22:00,46.8,44.0,29.76,West,279,0.0,0.0,90,0.00,,,0.00,WeatherTracker,2014-12-21 14:22:00,
2014-12-21 06:27:00,46.7,43.9,29.76,West,279,0.0,0.0,90,0.00,,,0.00,WeatherTracker,2014-12-21 14:27:00,
2014-12-21 06:32:00,46.7,43.9,29.76,West,279,0.0,0.0,90,0.00,,,0.00,WeatherTracker,2014-12-21 14:32:00,
2014-12-21 06:37:00,46.7,43.9,29.76,West,279,0.0,0.0,90,0.00,,,0.00,WeatherTracker,2014-12-21 14:37:00,
2014-12-21 06:42:00,46.7,43.9,29.76,West,279,0.0,0.0,90,0.00,,,0.00,WeatherTracker,2014-12-21 14:42:00,
2014-12-21 06:48:00,46.7,44.2,29.75,West,279,0.0,0.0,91,0.00,,,0.00,WeatherTracker,2014-12-21 14:48:00,
2014-12-21 06:53:00,46.7,44.2,29.75,West,279,0.0,0.0,91,0.00,,,0.00,WeatherTracker,2014-12-21 14:53:00,
2014-12-21 06:58:00,46.7,44.2,29.75,West,279,0.0,0.0,91,0.00,,,0.00,WeatherTracker,2014-12-21 14:58:00,
2014-12-21 07:03:00,46.7,44.2,29.76,West,279,0.0,0.0,91,0.00,,,0.00,WeatherTracker,2014-12-21 15:03:00,
2014-12-21 07:08:00,46.7,44.2,29.76,West,279,0.0,0.0,91,0.00,,,0.00,WeatherTracker,2014-12-21 15:08:00,
2014-12-21 07:13:00,46.7,44.2,29.76,West,279,0.0,0.0,91,0.00,,,0.00,WeatherTracker,2014-12-21 15:13:00,
2014-12-21 07:18:00,46.5,44.0,29.79,West,279,0.0,0.0,91,0.00,,,0.00,WeatherTracker,2014-12-21 15:18:00,
2014-12-21 07:23:00,46.5,44.3,29.79,West,279,0.0,0.0,92,0.00,,,0.00,WeatherTracker,2014-12-21 15:23:00,
2014-12-21 07:28:00,46.5,44.3,29.79,West,279,0.0,0.0,92,0.01,,,0.01,WeatherTracker,2014-12-21 15:28:00,
2014-12-21 07:33:00,46.4,44.2,29.80,West,279,0.0,0.0,92,0.01,,,0.01,WeatherTracker,2014-12-21 15:33:00,
2014-12-21 07:38:00,46.4,44.2,29.80,West,279,0.0,0.0,92,0.01,,,0.01,WeatherTracker,2014-12-21 15:38:00,
2014-12-21 07:43:00,46.4,44.2,29.80,West,279,0.0,0.0,92,0.01,,,0.01,WeatherTracker,2014-12-21 15:43:00,
2014-12-21 07:48:00,46.4,44.2,29.81,West,279,0.0,0.0,92,0.01,,,0.01,WeatherTracker,2014-12-21 15:48:00,
2014-12-21 07:53:00,46.2,44.0,29.81,West,279,0.0,0.0,92,0.01,,,0.01,WeatherTracker,2014-12-21 15:53:00,
2014-12-21 07:58:00,46.2,44.3,29.81,West,279,0.0,0.0,93,0.01,,,0.01,WeatherTracker,2014-12-21 15:58:00,
2014-12-21 08:03:00,46.2,44.3,29.81,West,279,0.0,0.0,93,0.01,,,0.01,WeatherTracker,2014-12-21 16:03:00,
2014-12-21 08:08:00,46.1,44.2,29.81,West,279,0.0,0.0,93,0.01,,,0.01,WeatherTracker,2014-12-21 16:08:00,
2014-12-21 08:13:00,46.1,44.2,29.81,West,279,0.0,0.0,93,0.01,,,0.01,WeatherTracker,2014-12-21 16:13:00,
2014-12-21 08:18:00,46.1,44.2,29.82,West,279,0.0,0.0,93,0.01,,,0.01,WeatherTracker,2014-12-21 16:18:00,
2014-12-21 08:23:00,46.0,44.1,29.82,West,279,0.0,0.0,93,0.01,,,0.01,WeatherTracker,2014-12-21 16:23:00,
2014-12-21 08:28:00,46.0,44.1,29.82,West,279,0.0,0.0,93,0.00,,,0.01,WeatherTracker,2014-12-21 16:28:00,
2014-12-21 08:33:00,46.0,44.1,29.84,West,279,0.0,0.0,93,0.00,,,0.01,WeatherTracker,2014-12-21 16:33:00,
2014-12-21 08:38:00,46.0,44.4,29.84,West,279,0.0,0.0,94,0.00,,,0.01,WeatherTracker,2014-12-21 16:38:00,
2014-12-21 08:43:00,46.0,44.4,29.84,West,279,0.0,0.0,94,0.00,,,0.01,WeatherTracker,2014-12-21 16:43:00,
2014-12-21 08:48:00,46.0,44.4,29.84,West,279,0.0,0.0,94,0.00,,,0.01,WeatherTracker,2014-12-21 16:48:00,
2014-12-21 08:53:00,46.0,44.4,29.84,West,279,0.0,0.0,94,0.00,,,0.01,WeatherTracker,2014-12-21 16:53:00,
2014-12-21 08:59:00,46.0,44.4,29.87,West,279,0.0,0.0,94,0.00,,,0.01,WeatherTracker,2014-12-21 16:59:00,
2014-12-21 09:03:00,46.0,44.4,29.87,West,279,0.0,0.0,94,0.00,,,0.01,WeatherTracker,2014-12-21 17:03:00,
2014-12-21 09:09:00,46.0,44.4,29.87,West,279,0.0,0.0,94,0.00,,,0.01,WeatherTracker,2014-12-21 17:09:00,
2014-12-21 09:14:00,46.1,44.7,29.86,West,279,0.0,0.0,95,0.00,,,0.01,WeatherTracker,2014-12-21 17:14:00,
2014-12-21 09:19:00,46.1,44.7,29.86,West,279,0.0,0.0,95,0.00,,,0.01,WeatherTracker,2014-12-21 17:19:00,
2014-12-21 09:24:00,46.2,44.8,29.86,West,279,0.0,0.0,95,0.00,,,0.01,WeatherTracker,2014-12-21 17:24:00,
2014-12-21 09:29:00,46.4,45.0,29.85,West,279,0.0,0.0,95,0.00,,,0.01,WeatherTracker,2014-12-21 17:29:00,
2014-12-21 09:34:00,46.4,45.0,29.85,West,279,0.0,0.0,95,0.00,,,0.01,WeatherTracker,2014-12-21 17:34:00,
2014-12-21 09:39:00,46.5,45.1,29.85,West,279,0.0,0.0,95,0.00,,,0.01,WeatherTracker,2014-12-21 17:39:00,
2014-12-21 09:44:00,46.5,45.1,29.87,West,279,0.0,0.0,95,0.00,,,0.01,WeatherTracker,2014-12-21 17:44:00,
2014-12-21 09:49:00,46.7,45.3,29.87,West,279,0.0,0.0,95,0.00,,,0.01,WeatherTracker,2014-12-21 17:49:00,
2014-12-21 09:54:00,46.7,45.3,29.87,West,279,0.0,0.0,95,0.00,,,0.01,WeatherTracker,2014-12-21 17:54:00,
2014-12-21 09:59:00,46.8,45.4,29.87,West,279,0.0,0.0,95,0.00,,,0.01,WeatherTracker,2014-12-21 17:59:00,
2014-12-21 10:04:00,47.0,45.6,29.87,WNW,292,0.0,0.0,95,0.00,,,0.01,WeatherTracker,2014-12-21 18:04:00,
2014-12-21 10:09:00,47.1,45.7,29.87,WNW,292,0.0,0.0,95,0.00,,,0.01,WeatherTracker,2014-12-21 18:09:00,
2014-12-21 10:14:00,47.1,45.7,29.87,WNW,292,0.0,0.0,95,0.00,,,0.01,WeatherTracker,2014-12-21 18:14:00,
2014-12-21 10:20:00,47.3,45.9,29.87,WNW,292,0.0,0.0,95,0.00,,,0.01,WeatherTracker,2014-12-21 18:20:00,
2014-12-21 10:25:00,47.4,46.3,29.87,WNW,292,0.0,0.0,96,0.00,,,0.01,WeatherTracker,2014-12-21 18:25:00,
2014-12-21 10:30:00,47.6,46.5,29.88,WNW,292,0.0,0.0,96,0.00,,,0.01,WeatherTracker,2014-12-21 18:30:00,
2014-12-21 10:35:00,47.7,46.6,29.88,WNW,292,0.0,0.0,96,0.00,,,0.01,WeatherTracker,2014-12-21 18:35:00,
2014-12-21 10:40:00,47.9,46.8,29.88,WNW,292,0.0,0.0,96,0.00,,,0.01,WeatherTracker,2014-12-21 18:40:00,
2014-12-21 10:45:00,48.0,46.9,29.88,WNW,294,0.0,0.0,96,0.00,,,0.01,WeatherTracker,2014-12-21 18:45:00,
2014-12-21 10:50:00,48.0,46.6,29.88,WNW,294,0.0,0.0,95,0.00,,,0.01,WeatherTracker,2014-12-21 18:50:00,
2014-12-21 10:55:00,48.2,46.8,29.88,WNW,294,0.0,0.0,95,0.00,,,0.01,WeatherTracker,2014-12-21 18:55:00,
2014-12-21 11:00:00,48.3,46.9,29.88,WNW,294,0.0,0.0,95,0.00,,,0.01,WeatherTracker,2014-12-21 19:00:00,
2014-12-21 11:05:00,48.5,47.1,29.88,WNW,294,0.0,0.0,95,0.00,,,0.01,WeatherTracker,2014-12-21 19:05:00,
2014-12-21 11:10:00,48.6,47.2,29.88,WNW,294,0.0,0.0,95,0.00,,,0.01,WeatherTracker,2014-12-21 19:10:00,
2014-12-21 11:15:00,48.9,47.8,29.88,WNW,294,0.0,0.0,96,0.00,,,0.01,WeatherTracker,2014-12-21 19:15:00,
2014-12-21 11:20:00,49.1,47.7,29.88,WNW,294,0.0,0.0,95,0.00,,,0.01,WeatherTracker,2014-12-21 19:20:00,
2014-12-21 11:25:00,49.2,47.8,29.88,WNW,294,0.0,0.0,95,0.00,,,0.01,WeatherTracker,2014-12-21 19:25:00,
2014-12-21 11:30:00,49.4,47.7,29.88,WNW,294,0.0,0.0,94,0.00,,,0.01,WeatherTracker,2014-12-21 19:30:00,
2014-12-21 11:35:00,49.6,47.7,29.88,WNW,294,0.0,0.0,93,0.00,,,0.01,WeatherTracker,2014-12-21 19:35:00,
2014-12-21 11:40:00,49.8,47.9,29.88,WNW,284,2.0,0.0,93,0.00,,,0.01,WeatherTracker,2014-12-21 19:40:00,
2014-12-21 11:45:00,49.9,47.7,29.88,WNW,284,0.0,0.0,92,0.00,,,0.01,WeatherTracker,2014-12-21 19:45:00,
2014-12-21 11:51:00,50.1,47.9,29.88,WNW,284,0.0,0.0,92,0.00,,,0.01,WeatherTracker,2014-12-21 19:51:00,
2014-12-21 11:56:00,50.4,48.2,29.88,WNW,284,0.0,0.0,92,0.00,,,0.01,WeatherTracker,2014-12-21 19:56:00,
2014-12-21 12:01:00,50.4,47.9,29.90,WSW,253,0.0,0.0,91,0.00,,,0.01,WeatherTracker,2014-12-21 20:01:00,
2014-12-21 12:06:00,50.4,47.6,29.90,WSW,253,0.0,0.0,90,0.00,,,0.01,WeatherTracker,2014-12-21 20:06:00,
2014-12-21 12:11:00,50.4,47.6,29.90,WSW,252,0.0,0.0,90,0.00,,,0.01,WeatherTracker,2014-12-21 20:11:00,
2014-12-21 12:16:00,50.4,47.6,29.91,WSW,252,0.0,0.0,90,0.00,,,0.01,WeatherTracker,2014-12-21 20:16:00,
2014-12-21 12:21:00,50.4,47.6,29.91,WSW,253,0.0,0.0,90,0.00,,,0.01,WeatherTracker,2014-12-21 20:21:00,
2014-12-21 12:26:00,50.4,47.6,29.91,WSW,253,0.0,0.0,90,0.00,,,0.01,WeatherTracker,2014-12-21 20:26:00,
2014-12-21 12:31:00,50.4,47.6,29.90,WSW,253,0.0,0.0,90,0.00,,,0.01,WeatherTracker,2014-12-21 20:31:00,
2014-12-21 12:36:00,50.4,47.6,29.90,WSW,253,0.0,0.0,90,0.00,,,0.01,WeatherTracker,2014-12-21 20:36:00,
2014-12-21 12:41:00,50.4,47.6,29.90,WSW,253,0.0,0.0,90,0.00,,,0.01,WeatherTracker,2014-12-21 20:41:00,
2014-12-21 12:46:00,50.5,47.7,29.91,WSW,252,0.0,0.0,90,0.00,,,0.01,WeatherTracker,2014-12-21 20:46:00,
2014-12-21 12:51:00,50.5,47.7,29.91,WSW,252,0.0,0.0,90,0.00,,,0.01,WeatherTracker,2014-12-21 20:51:00,
2014-12-21 12:56:00,50.7,47.9,29.91,WSW,252,0.0,0.0,90,0.00,,,0.01,WeatherTracker,2014-12-21 20:56:00,
2014-12-21 13:01:00,50.7,47.9,29.92,NE,56,4.0,0.0,90,0.00,,,0.01,WeatherTracker,2014-12-21 21:01:00,
2014-12-21 13:06:00,50.8,47.7,29.92,East,93,0.0,0.0,89,0.00,,,0.01,WeatherTracker,2014-12-21 21:06:00,
2014-12-21 13:11:00,51.0,47.9,29.92,East,93,0.0,0.0,89,0.00,,,0.01,WeatherTracker,2014-12-21 21:11:00,
2014-12-21 13:16:00,51.0,47.9,29.93,East,93,0.0,0.0,89,0.00,,,0.01,WeatherTracker,2014-12-21 21:16:00,
2014-12-21 13:21:00,51.1,47.7,29.93,East,93,0.0,0.0,88,0.00,,,0.01,WeatherTracker,2014-12-21 21:21:00,
2014-12-21 13:26:00,51.1,47.7,29.93,East,93,0.0,0.0,88,0.00,,,0.01,WeatherTracker,2014-12-21 21:26:00,
2014-12-21 13:31:00,51.1,47.4,29.93,East,93,0.0,0.0,87,0.00,,,0.01,WeatherTracker,2014-12-21 21:31:00,
2014-12-21 13:36:00,51.1,47.4,29.93,East,93,0.0,0.0,87,0.00,,,0.01,WeatherTracker,2014-12-21 21:36:00,
2014-12-21 13:41:00,51.0,47.0,29.93,East,93,0.0,0.0,86,0.00,,,0.01,WeatherTracker,2014-12-21 21:41:00,
2014-12-21 13:46:00,51.0,47.3,29.94,East,93,0.0,0.0,87,0.00,,,0.01,WeatherTracker,2014-12-21 21:46:00,
2014-12-21 13:51:00,51.0,47.3,29.94,East,93,0.0,0.0,87,0.00,,,0.01,WeatherTracker,2014-12-21 21:51:00,
2014-12-21 13:56:00,51.0,47.6,29.94,East,93,0.0,0.0,88,0.00,,,0.01,WeatherTracker,2014-12-21 21:56:00,
2014-12-21 14:01:00,51.0,47.6,29.94,East,93,0.0,0.0,88,0.00,,,0.01,WeatherTracker,2014-12-21 22:01:00,
2014-12-21 14:07:00,51.0,47.9,29.94,East,93,0.0,0.0,89,0.00,,,0.01,WeatherTracker,2014-12-21 22:07:00,
2014-12-21 14:12:00,51.0,47.9,29.94,East,93,0.0,0.0,89,0.00,,,0.01,WeatherTracker,2014-12-21 22:12:00,
2014-12-21 14:17:00,51.0,47.9,29.94,East,93,0.0,0.0,89,0.00,,,0.01,WeatherTracker,2014-12-21 22:17:00,
2014-12-21 14:22:00,51.0,47.9,29.94,East,93,0.0,0.0,89,0.00,,,0.01,WeatherTracker,2014-12-21 22:22:00,
2014-12-21 14:27:00,51.0,47.9,29.94,East,93,0.0,0.0,89,0.00,,,0.01,WeatherTracker,2014-12-21 22:27:00,
2014-12-21 14:32:00,50.8,47.7,29.94,East,93,0.0,0.0,89,0.00,,,0.01,WeatherTracker,2014-12-21 22:32:00,
2014-12-21 14:37:00,50.7,47.9,29.94,East,93,0.0,0.0,90,0.00,,,0.01,WeatherTracker,2014-12-21 22:37:00,
2014-12-21 14:42:00,50.5,47.7,29.94,East,93,0.0,0.0,90,0.00,,,0.01,WeatherTracker,2014-12-21 22:42:00,
2014-12-21 14:47:00,50.5,47.7,29.95,East,93,0.0,0.0,90,0.00,,,0.01,WeatherTracker,2014-12-21 22:47:00,
2014-12-21 14:52:00,50.4,47.9,29.95,East,93,0.0,0.0,91,0.00,,,0.01,WeatherTracker,2014-12-21 22:52:00,
2014-12-21 14:57:00,50.2,47.7,29.95,East,93,0.0,0.0,91,0.00,,,0.01,WeatherTracker,2014-12-21 22:57:00,
2014-12-21 15:02:00,50.2,47.7,29.95,East,93,0.0,0.0,91,0.00,,,0.01,WeatherTracker,2014-12-21 23:02:00,
2014-12-21 15:07:00,50.1,47.6,29.95,East,93,0.0,0.0,91,0.00,,,0.01,WeatherTracker,2014-12-21 23:07:00,
2014-12-21 15:12:00,50.1,47.6,29.95,East,93,0.0,0.0,91,0.00,,,0.01,WeatherTracker,2014-12-21 23:12:00,
2014-12-21 15:17:00,49.9,47.4,29.96,East,93,0.0,0.0,91,0.00,,,0.01,WeatherTracker,2014-12-21 23:17:00,
2014-12-21 15:22:00,49.9,47.7,29.96,East,93,0.0,0.0,92,0.00,,,0.01,WeatherTracker,2014-12-21 23:22:00,
2014-12-21 15:27:00,49.9,47.7,29.96,East,93,0.0,0.0,92,0.00,,,0.01,WeatherTracker,2014-12-21 23:27:00,
2014-12-21 15:32:00,49.8,47.6,29.96,East,93,0.0,0.0,92,0.00,,,0.01,WeatherTracker,2014-12-21 23:32:00,
2014-12-21 15:37:00,49.6,47.4,29.96,East,93,2.0,0.0,92,0.00,,,0.01,WeatherTracker,2014-12-21 23:37:00,
2014-12-21 15:43:00,49.5,47.3,29.96,ESE,123,0.0,0.0,92,0.00,,,0.01,WeatherTracker,2014-12-21 23:43:00,
2014-12-21 15:48:00,49.5,47.3,29.97,ESE,123,0.0,0.0,92,0.00,,,0.01,WeatherTracker,2014-12-21 23:48:00,
2014-12-21 15:53:00,49.4,47.2,29.97,ESE,123,0.0,0.0,92,0.00,,,0.01,WeatherTracker,2014-12-21 23:53:00,
2014-12-21 15:58:00,49.4,47.5,29.97,ESE,123,0.0,0.0,93,0.00,,,0.01,WeatherTracker,2014-12-21 23:58:00,
2014-12-21 16:03:00,49.2,47.3,29.97,ESE,123,0.0,0.0,93,0.00,,,0.01,WeatherTracker,2014-12-22 00:03:00,
2014-12-21 16:08:00,49.2,47.3,29.97,ESE,123,0.0,0.0,93,0.00,,,0.01,WeatherTracker,2014-12-22 00:08:00,
2014-12-21 16:13:00,49.1,47.2,29.97,ESE,123,1.0,0.0,93,0.00,,,0.01,WeatherTracker,2014-12-22 00:13:00,
2014-12-21 16:18:00,49.1,47.2,29.98,ESE,123,0.0,0.0,93,0.00,,,0.01,WeatherTracker,2014-12-22 00:18:00,
2014-12-21 16:23:00,48.9,47.0,29.98,ESE,123,0.0,0.0,93,0.00,,,0.01,WeatherTracker,2014-12-22 00:23:00,
2014-12-21 16:28:00,48.8,46.9,29.98,ESE,123,0.0,0.0,93,0.00,,,0.01,WeatherTracker,2014-12-22 00:28:00,
2014-12-21 16:33:00,48.8,46.9,29.99,ESE,123,0.0,0.0,93,0.00,,,0.01,WeatherTracker,2014-12-22 00:33:00,
2014-12-21 16:38:00,48.6,46.7,29.99,ESE,123,0.0,0.0,93,0.00,,,0.01,WeatherTracker,2014-12-22 00:38:00,
2014-12-21 16:43:00,48.6,46.7,29.99,ESE,123,0.0,0.0,93,0.00,,,0.01,WeatherTracker,2014-12-22 00:43:00,
2014-12-21 16:48:00,48.5,46.6,29.98,ESE,123,0.0,0.0,93,0.00,,,0.01,WeatherTracker,2014-12-22 00:48:00,
2014-12-21 16:53:00,48.5,46.6,29.98,ESE,123,0.0,0.0,93,0.00,,,0.01,WeatherTracker,2014-12-22 00:53:00,
2014-12-21 16:58:00,48.3,46.4,29.98,ESE,123,0.0,0.0,93,0.00,,,0.01,WeatherTracker,2014-12-22 00:58:00,
2014-12-21 17:03:00,48.2,46.3,29.98,ESE,123,0.0,0.0,93,0.00,,,0.01,WeatherTracker,2014-12-22 01:03:00,
2014-12-21 17:08:00,48.0,46.1,29.98,ESE,123,0.0,0.0,93,0.00,,,0.01,WeatherTracker,2014-12-22 01:08:00,
2014-12-21 17:13:00,48.0,46.1,29.98,ESE,123,0.0,0.0,93,0.00,,,0.01,WeatherTracker,2014-12-22 01:13:00,
2014-12-21 17:18:00,47.9,46.0,29.99,ESE,123,0.0,0.0,93,0.00,,,0.01,WeatherTracker,2014-12-22 01:18:00,
2014-12-21 17:24:00,47.9,46.0,29.99,ESE,123,0.0,0.0,93,0.00,,,0.01,WeatherTracker,2014-12-22 01:24:00,
2014-12-21 17:29:00,47.7,45.8,30.00,ESE,123,0.0,0.0,93,0.00,,,0.01,WeatherTracker,2014-12-22 01:29:00,
2014-12-21 17:34:00,47.7,45.8,30.00,ESE,123,0.0,0.0,93,0.00,,,0.01,WeatherTracker,2014-12-22 01:34:00,
2014-12-21 17:39:00,47.6,46.0,30.00,ESE,123,0.0,0.0,94,0.00,,,0.01,WeatherTracker,2014-12-22 01:39:00,
2014-12-21 17:44:00,47.6,45.7,30.00,ESE,123,0.0,0.0,93,0.00,,,0.01,WeatherTracker,2014-12-22 01:44:00,
2014-12-21 17:49:00,47.6,46.0,30.00,ESE,123,0.0,0.0,94,0.00,,,0.01,WeatherTracker,2014-12-22 01:49:00,
2014-12-21 17:54:00,47.4,45.5,30.00,ESE,123,0.0,0.0,93,0.00,,,0.01,WeatherTracker,2014-12-22 01:54:00,
2014-12-21 17:59:00,47.3,45.7,29.99,ESE,123,0.0,0.0,94,0.00,,,0.01,WeatherTracker,2014-12-22 01:59:00,
2014-12-21 18:04:00,47.3,45.4,29.99,ESE,123,0.0,0.0,93,0.00,,,0.01,WeatherTracker,2014-12-22 02:04:00,
2014-12-21 18:09:00,47.1,45.2,29.99,ESE,123,0.0,0.0,93,0.00,,,0.01,WeatherTracker,2014-12-22 02:09:00,
2014-12-21 18:14:00,47.0,45.1,30.00,ESE,123,0.0,0.0,93,0.00,,,0.01,WeatherTracker,2014-12-22 02:14:00,
2014-12-21 18:19:00,47.0,45.1,30.00,ESE,123,0.0,0.0,93,0.00,,,0.01,WeatherTracker,2014-12-22 02:19:00,
2014-12-21 18:24:00,46.8,44.9,30.00,ESE,123,0.0,0.0,93,0.00,,,0.01,WeatherTracker,2014-12-22 02:24:00,
2014-12-21 18:29:00,46.7,44.8,30.00,ESE,123,0.0,0.0,93,0.00,,,0.01,WeatherTracker,2014-12-22 02:29:00,
2014-12-21 18:34:00,46.7,45.1,30.00,ESE,123,0.0,0.0,94,0.00,,,0.01,WeatherTracker,2014-12-22 02:34:00,
2014-12-21 18:39:00,46.5,44.9,30.00,ESE,123,0.0,0.0,94,0.00,,,0.01,WeatherTracker,2014-12-22 02:39:00,
2014-12-21 18:44:00,46.4,44.8,30.01,ESE,123,0.0,0.0,94,0.00,,,0.01,WeatherTracker,2014-12-22 02:44:00,
2014-12-21 18:49:00,46.4,44.8,30.01,ESE,123,0.0,0.0,94,0.00,,,0.01,WeatherTracker,2014-12-22 02:49:00,
2014-12-21 18:54:00,46.4,44.8,30.01,ESE,123,0.0,0.0,94,0.00,,,0.01,WeatherTracker,2014-12-22 02:54:00,
2014-12-21 18:59:00,46.4,44.8,30.02,ESE,123,0.0,0.0,94,0.00,,,0.01,WeatherTracker,2014-12-22 02:59:00,
2014-12-21 19:04:00,46.2,44.6,30.02,ESE,123,0.0,0.0,94,0.00,,,0.01,WeatherTracker,2014-12-22 03:04:00,
2014-12-21 19:09:00,46.2,44.6,30.02,ESE,123,0.0,0.0,94,0.00,,,0.01,WeatherTracker,2014-12-22 03:09:00,
2014-12-21 19:14:00,46.2,44.6,30.01,ESE,123,0.0,0.0,94,0.00,,,0.01,WeatherTracker,2014-12-22 03:14:00,
2014-12-21 19:20:00,46.2,44.8,30.01,ESE,123,0.0,0.0,95,0.00,,,0.01,WeatherTracker,2014-12-22 03:20:00,
2014-12-21 19:25:00,46.2,44.8,30.01,ESE,123,0.0,0.0,95,0.00,,,0.01,WeatherTracker,2014-12-22 03:25:00,
2014-12-21 19:30:00,46.1,44.7,30.01,ESE,123,0.0,0.0,95,0.00,,,0.01,WeatherTracker,2014-12-22 03:30:00,
2014-12-21 19:35:00,46.1,44.7,30.01,ESE,123,0.0,0.0,95,0.00,,,0.01,WeatherTracker,2014-12-22 03:35:00,
2014-12-21 19:40:00,46.1,44.7,30.01,ESE,123,0.0,0.0,95,0.00,,,0.01,WeatherTracker,2014-12-22 03:40:00,
2014-12-21 19:45:00,46.1,44.7,30.01,ESE,123,0.0,0.0,95,0.00,,,0.01,WeatherTracker,2014-12-22 03:45:00,
2014-12-21 19:50:00,46.0,44.6,30.01,ESE,123,0.0,0.0,95,0.00,,,0.01,WeatherTracker,2014-12-22 03:50:00,
2014-12-21 19:55:00,46.0,44.6,30.01,ESE,123,0.0,0.0,95,0.00,,,0.01,WeatherTracker,2014-12-22 03:55:00,
2014-12-21 20:00:00,45.8,44.5,30.01,ESE,123,0.0,0.0,95,0.00,,,0.01,WeatherTracker,2014-12-22 04:00:00,
2014-12-21 20:05:00,45.8,44.5,30.01,ESE,123,0.0,0.0,95,0.00,,,0.01,WeatherTracker,2014-12-22 04:05:00,
2014-12-21 20:10:00,45.7,44.4,30.01,ESE,123,0.0,0.0,95,0.00,,,0.01,WeatherTracker,2014-12-22 04:10:00,
2014-12-21 20:15:00,45.7,44.4,30.02,ESE,123,0.0,0.0,95,0.00,,,0.01,WeatherTracker,2014-12-22 04:15:00,
2014-12-21 20:20:00,45.5,44.2,30.02,ESE,123,0.0,0.0,95,0.00,,,0.01,WeatherTracker,2014-12-22 04:20:00,
2014-12-21 20:25:00,45.5,44.2,30.02,ESE,123,0.0,0.0,95,0.00,,,0.01,WeatherTracker,2014-12-22 04:25:00,
2014-12-21 20:30:00,45.4,44.1,30.01,ESE,123,0.0,0.0,95,0.00,,,0.01,WeatherTracker,2014-12-22 04:30:00,
2014-12-21 20:35:00,45.4,44.1,30.01,ESE,123,0.0,0.0,95,0.00,,,0.01,WeatherTracker,2014-12-22 04:35:00,
2014-12-21 20:40:00,45.2,43.9,30.01,ESE,123,0.0,0.0,95,0.00,,,0.01,WeatherTracker,2014-12-22 04:40:00,
2014-12-21 20:45:00,45.2,43.9,30.02,ESE,123,0.0,0.0,95,0.00,,,0.01,WeatherTracker,2014-12-22 04:45:00,
2014-12-21 20:50:00,45.1,43.8,30.02,ESE,123,0.0,0.0,95,0.00,,,0.01,WeatherTracker,2014-12-22 04:50:00,
2014-12-21 20:55:00,45.1,43.8,30.02,ESE,123,0.0,0.0,95,0.00,,,0.01,WeatherTracker,2014-12-22 04:55:00,
2014-12-21 21:00:00,45.1,43.8,30.02,ESE,123,0.0,0.0,95,0.00,,,0.01,WeatherTracker,2014-12-22 05:00:00,
2014-12-21 21:05:00,45.1,43.8,30.02,ESE,123,0.0,0.0,95,0.00,,,0.01,WeatherTracker,2014-12-22 05:05:00,
2014-12-21 21:10:00,44.9,43.6,30.02,ESE,123,0.0,0.0,95,0.00,,,0.01,WeatherTracker,2014-12-22 05:10:00,
2014-12-21 21:16:00,44.9,43.6,30.02,ESE,123,0.0,0.0,95,0.00,,,0.01,WeatherTracker,2014-12-22 05:16:00,
2014-12-21 21:21:00,44.9,43.6,30.02,ESE,123,0.0,0.0,95,0.00,,,0.01,WeatherTracker,2014-12-22 05:21:00,
2014-12-21 21:26:00,44.9,43.6,30.02,ESE,123,0.0,0.0,95,0.00,,,0.01,WeatherTracker,2014-12-22 05:26:00,
2014-12-21 21:31:00,44.9,43.6,30.03,ESE,123,0.0,0.0,95,0.00,,,0.01,WeatherTracker,2014-12-22 05:31:00,
2014-12-21 21:36:00,44.9,43.6,30.03,ESE,123,0.0,0.0,95,0.00,,,0.01,WeatherTracker,2014-12-22 05:36:00,
2014-12-21 21:41:00,44.9,43.6,30.03,ESE,123,0.0,0.0,95,0.00,,,0.01,WeatherTracker,2014-12-22 05:41:00,
2014-12-21 21:46:00,44.9,43.6,30.03,ESE,123,0.0,0.0,95,0.00,,,0.01,WeatherTracker,2014-12-22 05:46:00,
2014-12-21 21:51:00,45.1,43.8,30.03,ESE,123,0.0,0.0,95,0.00,,,0.01,WeatherTracker,2014-12-22 05:51:00,
2014-12-21 21:56:00,45.1,43.8,30.03,ESE,123,0.0,0.0,95,0.00,,,0.01,WeatherTracker,2014-12-22 05:56:00,
2014-12-21 22:01:00,44.9,43.6,30.03,ESE,123,0.0,0.0,95,0.00,,,0.01,WeatherTracker,2014-12-22 06:01:00,
2014-12-21 22:06:00,44.9,43.6,30.03,ESE,123,0.0,0.0,95,0.00,,,0.01,WeatherTracker,2014-12-22 06:06:00,
2014-12-21 22:11:00,44.9,43.6,30.03,ESE,123,0.0,0.0,95,0.00,,,0.01,WeatherTracker,2014-12-22 06:11:00,
2014-12-21 22:16:00,44.9,43.6,30.03,ESE,123,0.0,0.0,95,0.00,,,0.01,WeatherTracker,2014-12-22 06:16:00,
2014-12-21 22:21:00,44.8,43.7,30.03,ESE,123,0.0,0.0,96,0.00,,,0.01,WeatherTracker,2014-12-22 06:21:00,
2014-12-21 22:26:00,44.8,43.5,30.03,ESE,123,0.0,0.0,95,0.00,,,0.01,WeatherTracker,2014-12-22 06:26:00,
2014-12-21 22:31:00,44.6,43.5,30.04,ESE,123,0.0,0.0,96,0.00,,,0.01,WeatherTracker,2014-12-22 06:31:00,
2014-12-21 22:36:00,44.6,43.5,30.04,ESE,123,0.0,0.0,96,0.00,,,0.01,WeatherTracker,2014-12-22 06:36:00,
2014-12-21 22:41:00,44.6,43.5,30.04,ESE,123,0.0,0.0,96,0.00,,,0.01,WeatherTracker,2014-12-22 06:41:00,
2014-12-21 22:46:00,44.6,43.5,30.04,ESE,123,0.0,0.0,96,0.00,,,0.01,WeatherTracker,2014-12-22 06:46:00,